Placerville, CA

12:14 PM PDT on September 19, 2017 (GMT -0700)
Placerville

Weather History for KPVF - May, 2013

Change the Weather History Date:

Friday, May 24, 2013

  Actual Average Record
Temperature  
Mean Temperature 60 °F -  
Max Temperature 71 °F 79 °F 80 °F (2014)
Min Temperature 48 °F 47 °F 44 °F (2011)
Degree Days  
Heating Degree Days 6    
Growing Degree Days 10 (Base 50)    
Moisture  
Dew Point 31 °F    
Average Humidity 36    
Maximum Humidity 54    
Minimum Humidity 23    
Precipitation  
Precipitation 0.00 in - - ()
Sea Level Pressure  
Sea Level Pressure 29.99 in    
Wind  
Wind Speed 6 mph (South)    
Max Wind Speed 12 mph    
Max Gust Speed -    
Visibility 10 miles    
Events      
Averages and records for this station are not official NWS values.
T = Trace of Precipitation, MM = Missing Value Source: NWS Daily Summary

Daily Weather History Graph

Daily Weather History Graph

Search for Another Location

Airport or City:

Trip Planner

Search our weather history database for the weather conditions in past years. The results will help you decide how hot, cold, wet, or windy it might be!

Date:

Astronomy

May. 24, 2013 Rise Set
Actual Time 5:43 AM PDT 8:16 PM PDT
Civil Twilight 5:13 AM PDT 8:47 PM PDT
Nautical Twilight 4:35 AM PDT 9:25 PM PDT
Astronomical Twilight 3:52 AM PDT 10:07 PM PDT
Moon 8:04 PM PDT (5/24) 5:19 AM PDT (5/24)
Length of Visible Light 15h 33m
Length of Day
14h 32m
Full, 100% of the Moon is Illuminated
May 24
Full
May 24
Full
May 31
Last Quarter
Jun 8
New
Jun 16
First Quarter

Hourly Weather History & Observations

Time (PDT) Temp. Dew Point Humidity Pressure Visibility Wind Dir Wind Speed Gust Speed Precip Events Conditions
12:15 AM 53.6 °F 32.0 °F 44% 29.99 in 10.0 mi East 3.5 mph - N/A   Mostly Cloudy
12:35 AM 50.0 °F 32.0 °F 50% 29.99 in 10.0 mi ESE 5.8 mph - N/A   Mostly Cloudy
12:55 AM 48.2 °F 32.0 °F 54% 29.99 in 10.0 mi East 8.1 mph - N/A   Mostly Cloudy
1:15 AM 50.0 °F 32.0 °F 50% 29.98 in 10.0 mi ESE 5.8 mph - N/A   Scattered Clouds
1:35 AM 50.0 °F 32.0 °F 50% 29.98 in 10.0 mi East 3.5 mph - N/A   Partly Cloudy
1:55 AM 50.0 °F 32.0 °F 50% 29.98 in 10.0 mi East 3.5 mph - N/A   Partly Cloudy
2:15 AM 50.0 °F 32.0 °F 50% 29.98 in 10.0 mi East 4.6 mph - N/A   Partly Cloudy
2:35 AM 50.0 °F 32.0 °F 50% 29.98 in 10.0 mi ENE 6.9 mph - N/A   Partly Cloudy
2:55 AM 50.0 °F 32.0 °F 50% 29.98 in 10.0 mi ENE 8.1 mph - N/A   Partly Cloudy
3:15 AM 50.0 °F 32.0 °F 50% 29.97 in 10.0 mi ENE 9.2 mph - N/A   Partly Cloudy
3:35 AM 48.2 °F 32.0 °F 54% 29.97 in 10.0 mi East 9.2 mph - N/A   Clear
3:55 AM 48.2 °F 32.0 °F 54% 29.98 in 10.0 mi East 9.2 mph - N/A   Partly Cloudy
4:15 AM 48.2 °F 32.0 °F 54% 29.97 in 10.0 mi ENE 6.9 mph - N/A   Partly Cloudy
4:35 AM 48.2 °F 28.4 °F 46% 29.97 in 10.0 mi ENE 6.9 mph - N/A   Partly Cloudy
4:55 AM 50.0 °F 26.6 °F 40% 29.97 in 10.0 mi ENE 10.4 mph - N/A   Clear
5:15 AM 48.2 °F 26.6 °F 43% 29.97 in 10.0 mi ENE 10.4 mph - N/A   Clear
5:35 AM 48.2 °F 24.8 °F 40% 29.97 in 10.0 mi ENE 10.4 mph - N/A   Clear
5:55 AM 48.2 °F 24.8 °F 40% 29.97 in 10.0 mi ENE 11.5 mph - N/A   Clear
6:15 AM 48.2 °F 24.8 °F 40% 29.97 in 10.0 mi NE 9.2 mph - N/A   Clear
6:35 AM 50.0 °F 24.8 °F 37% 29.97 in 10.0 mi ENE 11.5 mph - N/A   Clear
6:55 AM 50.0 °F 26.6 °F 40% 29.98 in 10.0 mi East 8.1 mph - N/A   Clear
7:15 AM 51.8 °F 26.6 °F 38% 29.98 in 10.0 mi East 5.8 mph - N/A   Clear
7:35 AM 55.4 °F 28.4 °F 36% 29.99 in 10.0 mi Calm Calm - N/A   Clear
7:55 AM 55.4 °F 30.2 °F 38% 30.00 in 10.0 mi East 3.5 mph - N/A   Clear
8:15 AM 57.2 °F 26.6 °F 31% 30.00 in 10.0 mi Calm Calm - N/A   Clear
8:35 AM 57.2 °F 28.4 °F 33% 30.01 in 10.0 mi Calm Calm - N/A   Clear
8:55 AM 57.2 °F 30.2 °F 36% 30.01 in 10.0 mi West 3.5 mph - N/A   Clear
9:15 AM 59.0 °F 32.0 °F 36% 30.01 in 10.0 mi WNW 4.6 mph - N/A   Clear
9:35 AM 59.0 °F 30.2 °F 34% 30.01 in 10.0 mi WNW 3.5 mph - N/A   Clear
9:55 AM 59.0 °F 30.2 °F 34% 30.02 in 10.0 mi NW 3.5 mph - N/A   Clear
10:15 AM 59.0 °F 32.0 °F 36% 30.01 in 10.0 mi NW 5.8 mph - N/A   Clear
10:35 AM 60.8 °F 32.0 °F 34% 30.01 in 10.0 mi NNW 3.5 mph - N/A   Clear
10:55 AM 60.8 °F 30.2 °F 31% 30.01 in 3.0 mi Calm Calm - N/A   Clear
11:15 AM 62.6 °F 32.0 °F 32% 30.01 in 10.0 mi Calm Calm - N/A   Clear
11:35 AM 64.4 °F 32.0 °F 30% 30.01 in 10.0 mi SW 4.6 mph - N/A   Clear
11:55 AM 64.4 °F 32.0 °F 30% 30.01 in 10.0 mi South 5.8 mph - N/A   Clear
12:15 PM 66.2 °F 32.0 °F 28% 30.01 in 10.0 mi South 5.8 mph - N/A   Clear
12:35 PM 66.2 °F 32.0 °F 28% 30.01 in 10.0 mi West 5.8 mph - N/A   Clear
12:55 PM 66.2 °F 35.6 °F 32% 30.00 in 10.0 mi SSW 6.9 mph - N/A   Clear
1:15 PM 68.0 °F 35.6 °F 30% 30.00 in 10.0 mi SW 4.6 mph - N/A   Clear
1:35 PM 66.2 °F 32.0 °F 28% 30.00 in 10.0 mi WNW 5.8 mph - N/A   Clear
1:55 PM 68.0 °F 32.0 °F 26% 30.00 in 10.0 mi WSW 8.1 mph - N/A   Clear
2:15 PM 68.0 °F 32.0 °F 26% 30.00 in 10.0 mi SW 10.4 mph - N/A   Clear
2:35 PM 69.8 °F 32.0 °F 25% 30.00 in 10.0 mi SW 4.6 mph - N/A   Clear
2:55 PM 69.8 °F 32.0 °F 25% 29.99 in 10.0 mi SW 6.9 mph - N/A   Clear
3:15 PM 69.8 °F 32.0 °F 25% 29.99 in 10.0 mi West 8.1 mph - N/A   Clear
3:35 PM 69.8 °F 32.0 °F 25% 29.99 in 10.0 mi WSW 8.1 mph - N/A   Clear
3:55 PM 71.6 °F 32.0 °F 23% 29.99 in 10.0 mi WSW 6.9 mph - N/A   Clear
4:15 PM 69.8 °F 30.2 °F 23% 29.98 in 10.0 mi SSW 9.2 mph - N/A   Clear
4:35 PM 69.8 °F 32.0 °F 25% 29.98 in 10.0 mi SSW 5.8 mph - N/A   Clear
4:55 PM 69.8 °F 30.2 °F 23% 29.98 in 10.0 mi SSW 3.5 mph - N/A   Clear
5:15 PM 68.0 °F 32.0 °F 26% 29.97 in 10.0 mi West 5.8 mph - N/A   Clear
5:35 PM 68.0 °F 32.0 °F 26% 29.97 in 10.0 mi WSW 5.8 mph - N/A   Clear
5:55 PM 68.0 °F 30.2 °F 24% 29.97 in 10.0 mi WSW 4.6 mph - N/A   Clear
6:15 PM 68.0 °F 28.4 °F 23% 29.97 in 10.0 mi SW 5.8 mph - N/A   Clear
6:35 PM 66.2 °F 32.0 °F 28% 29.97 in 10.0 mi SW 6.9 mph - N/A   Clear
6:55 PM 66.2 °F 32.0 °F 28% 29.97 in 10.0 mi SW 5.8 mph - N/A   Clear
7:15 PM 64.4 °F 32.0 °F 30% 29.97 in 10.0 mi West 5.8 mph - N/A   Clear
7:35 PM 62.6 °F 32.0 °F 32% 29.97 in 10.0 mi WSW 5.8 mph - N/A   Clear
7:55 PM 62.6 °F 32.0 °F 32% 29.97 in 10.0 mi West 4.6 mph - N/A   Clear
8:15 PM 59.0 °F 28.4 °F 31% 29.97 in 10.0 mi WSW 4.6 mph - N/A   Clear
8:35 PM 59.0 °F 26.6 °F 29% 29.98 in 10.0 mi WSW 4.6 mph - N/A   Clear
8:55 PM 57.2 °F 26.6 °F 31% 29.98 in 10.0 mi WSW 5.8 mph - N/A   Clear
9:15 PM 57.2 °F 28.4 °F 33% 29.98 in 10.0 mi SW 4.6 mph - N/A   Clear
9:35 PM 57.2 °F 28.4 °F 33% 29.98 in 10.0 mi Calm Calm - N/A   Partly Cloudy
9:55 PM 55.4 °F 32.0 °F 41% 29.98 in 10.0 mi SSE 4.6 mph - N/A   Partly Cloudy
10:15 PM 53.6 °F 32.0 °F 44% 29.99 in 10.0 mi SE 3.5 mph - N/A   Partly Cloudy
10:35 PM 53.6 °F 32.0 °F 44% 29.99 in 10.0 mi SE 4.6 mph - N/A   Scattered Clouds
10:55 PM 53.6 °F 32.0 °F 44% 29.99 in 10.0 mi ESE 5.8 mph - N/A   Partly Cloudy
11:15 PM 53.6 °F 32.0 °F 44% 29.98 in 10.0 mi SE 6.9 mph - N/A   Clear
11:35 PM 53.6 °F 32.0 °F 44% 29.98 in 10.0 mi ESE 5.8 mph - N/A   Partly Cloudy
11:55 PM 53.6 °F 32.0 °F 44% 29.98 in 10.0 mi ESE 6.9 mph - N/A   Scattered Clouds